Other Surface Observations
Issued by NWS Tucson, AZ

Home | Current Version | Previous Version | Text Only | Print | Product List | Glossary On
Versions: 1 2 3 4 5 6 7 8 9 10 11 12 13 14 15 16 17 18 19 20 21 22 23 24 25 26 27 28 29 30 31 32 33 34 35 36 37 38 39 40 41 42 43 44 45 46 47 48 49 50
000
SXUS55 KTWC 011715
OSOTWC

WEATHER ROUNDUP FOR SOUTHEAST ARIZONA
NATIONAL WEATHER SERVICE TUCSON AZ
1015 AM MST WED APR 01 2015

AZZ504>506-514-011815-
LOCATION       SKY/WX    TMP DP  RH WIND       PRES   REMARKS
TUCSON         SUNNY     78  42  27 S9        30.01R
DAVIS-MONTHAN  SUNNY     76  41  28 S10       29.99S
CHILDRENS PARK N/A       71  43  37 SE8               PIMA CO DEQ
ALVERNON/22ND  N/A      N/A N/A N/A N/A               PIMA CO DEQ
CHERRY/GLENN   N/A      N/A N/A N/A N/A               PIMA CO DEQ
TANGERINE      N/A       73 N/A N/A S13               PIMA CO DEQ
CONTL RANCH    N/A       74  45  36 SE10              PIMA CO DEQ
GRANT/1ST      N/A       73  44  35 S4                PIMA CO DEQ
CRAYCROFT/22ND N/A      N/A N/A N/A N/A               PIMA CO DEQ
GOLFLINKS/KOLB N/A      N/A N/A N/A N/A               PIMA CO DEQ
AJO/12TH       N/A       71  45  39 SE9               PIMA CO DEQ
SAGUARO EAST   N/A      N/A N/A N/A N/A               PIMA CO DEQ
FAIRGROUNDS    N/A       70 N/A N/A SE8               PIMA CO DEQ
SAGUARO        N/A       78  42  28 NE4               *SABINO CYN
SAN CARLOS     N/A       74  40  29 S3                *SAN CARLOS
GREEN VALLEY   N/A       69  46  44 SE3               PIMA CO DEQ
HORSE CAMP CYN N/A       66  42  42 E8G14             *ARAVAIPA CYN
RINCON MTNS    N/A       55  35  47 SW4G12            *NR MANNING CAMP
$$

AZZ509>511-011815-
LOCATION       SKY/WX    TMP DP  RH WIND       PRES   REMARKS
SAFFORD        SUNNY     73  40  30 VRB3      29.99S
STRAY HORSE    N/A       53  29  39 W16G25            *
TRAIL CABIN    N/A       62  35  37 NW7G12            *N OF GRANVILLE
BLACK HILLS    N/A       77  38  25 NW3               *N OF FT THOMAS
DRY LAKE       N/A       58  36  43 W6G13             *NATANES MTNS
NOON CREEK     N/A       69  39  34 NE6G12            *PINALENO MTNS
COLUMBINE      N/A       46  23  40 S9G14             *PINALENO MTNS
GUTHRIE        N/A       61  35  37 W5G14             *SW OF GUTHRIE
$$

AZZ502-503-513-011815-
LOCATION       SKY/WX    TMP DP  RH WIND       PRES   REMARKS
NOGALES        SUNNY     72  42  34 S10       30.07R
SELLS          N/A       77  42  29 S10G17            *
SASABE         N/A       74  41  30 S14G20            *ALTAR VLY
HOPKINS        N/A       56  38  50 W7G14             *SANTA RITA MTNS
CARR CYN       N/A       67  38  34 S4                *W OF HEREFORD
$$

AZZ507-508-512-011815-
LOCATION       SKY/WX    TMP DP  RH WIND       PRES   REMARKS
SIERRA VISTA   MOSUNNY   69  40  34 VRB5      30.10R
DOUGLAS        SUNNY     69  44  40 SE7       30.08S
EMPIRE MTNS    N/A       69  39  33 SW17G23           *LAS CIENEGAS NCA
MULESHOE RANCH N/A       68  41  38 CALM              *PRESERVE
HEADQUARTERS   N/A       66  39  37 W6G11             *CHIRICAHUA MTNS
$$

.............................NOTES.............................
THIS IS AN AUTOMATED COLLECTIVE WITH MINIMAL QUALITY CONTROL.
PIMA CO DEQ SITES HAVE NONSTANDARD WIND SENSOR HEIGHTS.
PIMA CO DEQ SITES DO NOT REPORT WIND GUSTS.
* INDICATES WIND SENSORS LOCATED AT 20 FEET INSTEAD OF 33 FEET.
..............................KEY..............................
SKY/WX - SKY CONDITION/WEATHER
TMP    - TEMPERATURE IN FAHRENHEIT
DP     - DEWPOINT IN FAHRENHEIT
RH     - RELATIVE HUMIDITY IN PERCENT
WIND   - DIRECTION AND SPEED IN MILES PER HOUR (MPH)
VRB    - VARIABLE WIND DIRECTION
PRES   - MEAN SEA LEVEL PRESSURE IN INCHES OF MERCURY
         F - FALLING PRESSURE   R - RISING PRESSURE
         S - STEADY PRESSURE
VSB    - VISIBILITY IN MILES
HX     - HEAT INDEX IN FAHRENHEIT
WCI    - WIND CHILL INDEX IN FAHRENHEIT
N/A    - NOT AVAILABLE
AFB    - AIR FORCE BASE
         DAVIS-MONTHAN IS DAVIS-MONTHAN AIR FORCE BASE
CYN    - CANYON
MTNS   - MOUNTAINS
NCA    - NATIONAL CONSERVATION AREA
NR     - NEAR
VLY    - VALLEY
CONTL  - CONTINENTAL
PIMA CO DEQ - PIMA COUNTY DEPT OF ENVIRONMENTAL QUALITY



USA.gov is the U.S. government's official web portal to all federal, state and local government web resources and services.